Regional Weather Roundup
Issued by NWS

Home | Current Version | Previous Version | Graphics & Text | Print | Product List | Glossary On
Versions: 1 2 3 4 5 6 7 8 9 10 11 12 13 14 15 16 17 18 19 20 21 22 23 24 25 26 27 28 29 30 31 32 33 34 35 36 37 38 39 40 41 42 43 44 45 46 47 48 49 50
000
ASUS43 KFSD 061610
RWRSD

WEATHER ROUNDUP FOR SOUTH DAKOTA
NATIONAL WEATHER SERVICE SIOUX FALLS SD
1000 AM CST TUE DEC 06 2016

NOTE: "FAIR" INDICATES FEW OR NO CLOUDS BELOW 12,000 FEET WITH NO
SIGNIFICANT WEATHER AND/OR OBSTRUCTIONS TO VISIBILITY.


SDZ001>005-009-010-012>017-061700-
NORTHWEST AND NORTH CENTRAL SOUTH DAKOTA

CITY           SKY/WX    TMP DP  RH WIND       PRES   REMARKS
BUFFALO          N/A      4  -3  73 NW30G37   29.90R WCI -21
FAITH            N/A      4   0  83 NW31G43   29.94R WCI -21
MOBRIDGE       LGT SNOW  12   4  70 NW29G51   29.86R VSB 3/4 WCI  -9
$$

SDZ012>016-024>037-041>051-057-063-072>074-061700-
SOUTHWEST AND SOUTH CENTRAL SOUTH DAKOTA

CITY           SKY/WX    TMP DP  RH WIND       PRES   REMARKS
RAPID CTY ARPT SUNNY     13   2  61 N21       29.97R WCI  -5
PIERRE         PTSUNNY   12   5  73 NW38G45   29.96R BLWGSNOWWCI -12
CUSTER         SUNNY     12  -4  48 NW9G21    29.81R WCI   0
ELLSWORTH AFB  SUNNY     13   1  58 N20       29.96R WCI  -5
PHILIP         SUNNY     13   2  61 NW26G33   30.02R WCI  -7
PINE RIDGE     SUNNY     11   4  73 W7        30.00R WCI   0
SPEARFISH      FAIR       9  -2  61 W18       29.96R WCI -10
WINNER         FAIR      18   6  59 NW24G33   29.99R WCI   0
$$

SDZ004>011-016>023-039-040-061700-
NORTHEAST SOUTH DAKOTA

CITY           SKY/WX    TMP DP  RH WIND       PRES   REMARKS
ABERDEEN       CLOUDY    16   7  67 W35G46    29.76R WCI  -5
WATERTOWN      LGT SNOW  14   9  80 W29G43    29.71R WCI  -7
BROOKINGS      LGT SNOW  15   9  76 W33G41    29.76R WCI  -6
SISSETON         N/A     20  13  74 NW26G40   29.61R WCI   2
$$

SDZ017-020-022-023-036>040-048>070-061700-
SOUTHEAST SOUTH DAKOTA

CITY           SKY/WX    TMP DP  RH WIND       PRES   REMARKS
SIOUX FALLS    FLURRIES  18   9  68 W29G38    29.87R WCI  -1
HURON          MOSUNNY   18   7  62 NW30G40   29.88R WCI  -1
CHAMBERLAIN    SUNNY     17   7  65 W25G41    29.98R WCI  -2
MITCHELL       PTSUNNY   19   9  65 W21G35    29.94R WCI   3
YANKTON        SUNNY    N/A N/A N/A W31G40    29.97R
$$

ABBREVIATIONS USED IN REMARKS
   TC - TEMPERATURE IN CELSIUS
  WCI - WIND CHILL INDEX
   HX - HEAT INDEX
  VSB - VISIBILITY





USA.gov is the U.S. government's official web portal to all federal, state and local government web resources and services.